Location: Oshawa
(43.9000°N, 78.8670°W)
Time: 20:23:51
(UTC-05:00)

PAYLOAD A - Visible Passes

Search period start: 17 February 2018 00:00
Search period end: 27 February 2018 00:00
Orbit: 691 x 833 km, 98.2° (Epoch: 16 February)

Date Brightness Start Highest point End Pass type
(mag) Time Alt. Az. Time Alt. Az. Time Alt. Az.
17 Feb 6.8 04:11:32 10° ENE 04:13:51 13° E 04:16:12 10° ESE visible
17 Feb 3.7 05:48:35 10° N 05:53:17 68° WNW 05:58:03 10° SSW visible
18 Feb 4.6 05:10:57 10° NNE 05:15:35 52° E 05:20:18 10° S visible
19 Feb 6.1 04:33:56 10° NE 04:37:42 23° E 04:41:31 10° SSE visible
19 Feb 4.2 06:12:23 10° N 06:16:48 40° WNW 06:21:18 10° SW visible
20 Feb 3.8 05:34:28 10° NNE 05:39:13 89° E 05:44:06 10° SSW visible
21 Feb 5.3 04:57:00 10° NNE 05:01:28 38° E 05:06:00 10° SSE visible
21 Feb 4.9 06:36:24 10° NNW 06:40:15 25° WNW 06:44:10 10° WSW visible
22 Feb 6.6 04:20:21 10° NE 04:23:31 17° E 04:26:43 10° SE visible
22 Feb 3.9 05:58:08 10° N 06:02:47 54° WNW 06:07:32 10° SSW visible
23 Feb 4.2 05:20:22 10° NNE 05:25:08 66° ESE 05:30:02 10° S visible
24 Feb 5.8 04:43:08 10° NE 04:47:19 29° E 04:51:35 10° SSE visible
24 Feb 4.5 06:22:00 10° N 06:26:17 33° WNW 06:30:39 10° SW visible
25 Feb 6.9 04:07:07 10° ENE 04:09:18 13° E 04:11:31 10° ESE visible
25 Feb 3.8 05:43:57 10° N 05:48:45 74° WNW 05:53:41 10° SSW visible
26 Feb 4.8 05:06:22 10° NNE 05:11:03 49° E 05:15:51 10° S visible
